DW8508 Weather Reports


time (UTC)temp
C
wind
direction
speed
KPH
gust
KPH
rain 1hr
cm
rain 24hr
cm
rain mn
cm
humidity
%
barometer
mb
20260507000005 -67 109 0.0 0.0 0.00 0.00 0.00 1020.1
20260506234501 -67 109 0.0 0.0 0.00 0.00 0.00 1020.1
20260506233052 -67 109 0.0 0.0 0.00 0.00 0.00 1020.1
20260506231541 -67 109 0.0 0.0 0.00 0.00 0.00 1020.1
20260506230037 -67 109 0.0 0.0 0.00 0.00 0.00 1020.2
20260506224536 -67 109 0.0 0.0 0.00 0.00 0.00 1020.3
20260506223030 -67 108 0.0 0.0 0.00 0.00 0.00 1020.1
20260506221527 -67 108 0.0 0.0 0.00 0.00 0.00 1020.1
20260506220027 -67 108 0.0 0.0 0.00 0.00 0.00 1020.2
20260506214516 -67 106 0.0 0.0 0.00 0.00 0.00 1020.2
20260506213101 -67 107 0.0 0.0 0.00 0.00 0.00 1020.2
20260506211556 -67 50 0.0 0.0 0.00 0.00 0.00 1020.3
20260506210052 -67 44 0.0 0.0 0.00 0.00 0.00 1020.1
20260506204547 -67 44 0.0 0.0 0.00 0.00 0.00 1020.1
20260506203049 -67 44 0.0 0.0 0.00 0.00 0.00 1020.1
20260506201550 -67 44 0.0 0.0 0.00 0.00 0.00 1020.0
20260506200033 -67 44 0.0 0.0 0.00 0.00 0.00 1020.1
20260506194534 -67 44 0.0 0.0 0.00 0.00 0.00 1019.9
20260506193015 -67 44 0.0 0.0 0.00 0.00 0.00 1019.9
20260506191510 -67 44 0.0 0.0 0.00 0.00 0.00 1019.8
20260506190005 -67 44 0.0 0.0 0.00 0.00 0.00 1019.7
20260506184603 -67 44 0.0 0.0 0.00 0.00 0.00 1019.6
20260506183056 -67 44 0.0 0.0 0.00 0.00 0.00 1019.5
20260506181552 -67 44 0.0 0.0 0.00 0.00 0.00 1019.4
20260506180047 -67 44 0.0 0.0 0.00 0.00 0.00 1019.3
20260506174543 -67 44 0.0 0.0 0.00 0.00 0.00 1019.1
20260506173026 -67 44 0.0 0.0 0.00 0.00 0.00 1019.0
20260506171522 -67 44 0.0 0.0 0.00 0.00 0.00 1019.1
20260506170017 -67 44 0.0 0.0 0.00 0.00 0.00 1019.1
20260506164513 -67 44 0.0 0.0 0.00 0.00 0.00 1018.9
20260506163012 -67 42 0.0 0.0 0.00 0.00 0.00 1018.8
20260506161505 -67 55 0.0 0.0 0.00 0.00 0.00 1018.8
20260506160103 -67 360 0.0 0.0 0.00 0.00 0.00 1018.8
20260506154602 -67 360 0.0 0.0 0.00 0.00 0.00 1018.8
20260506153042 -67 29 0.0 0.0 0.00 0.00 0.00 1018.9
20260506151534 -67 65 0.0 0.0 0.00 0.00 0.00 1018.9
20260506150032 -67 42 0.0 0.0 0.00 0.00 0.00 1018.9
20260506144526 -67 360 0.0 0.0 0.00 0.00 0.00 1018.9
20260506143022 -67 5 0.0 0.0 0.00 0.00 0.00 1018.8
20260506141517 -67 66 0.0 0.0 0.00 0.00 0.00 1018.9
20260506140013 -67 33 0.0 0.0 0.00 0.00 0.00 1018.9
20260506134508 -67 57 0.0 0.0 0.00 0.00 0.00 1018.9
20260506130051 -67 25 0.0 0.0 0.00 0.00 0.00 1018.9
20260506124542 -67 319 0.0 0.0 0.00 0.00 0.00 1019.0
20260506123037 -67 32 0.0 0.0 0.00 0.00 0.00 1019.1
20260506121532 -67 24 0.0 0.0 0.00 0.00 0.00 1019.2
20260506120032 -67 30 0.0 0.0 0.00 0.00 0.00 1019.3
20260506114524 -67 319 0.0 0.0 0.00 0.00 0.00 1019.4
20260506113019 -67 360 0.0 0.0 0.00 0.00 0.00 1019.5
20260506111518 -67 59 0.0 0.0 0.00 0.00 0.00 1019.5
20260506110059 -67 54 0.0 0.0 0.00 0.00 0.00 1019.4
20260506104554 -67 80 0.0 0.0 0.00 0.00 0.00 1019.4
20260506103050 -67 27 0.0 0.0 0.00 0.00 0.00 1019.4
20260506101545 -67 330 0.0 0.0 0.00 0.00 0.00 1019.5
20260506100043 -67 327 0.0 0.0 0.00 0.00 0.00 1019.5
20260506094544 -67 347 0.0 0.0 0.00 0.00 0.00 1019.5
20260506093052 -67 360 0.0 0.0 0.00 0.00 0.00 1019.4
20260506091528 -67 328 0.0 0.0 0.00 0.00 0.00 1019.4
20260506090006 -66 339 0.0 0.0 0.00 0.00 0.00 1019.5
20260506084505 -63 360 0.0 0.0 0.00 0.00 0.00 1019.3
20260506083045 -57 333 0.0 0.0 0.00 0.00 0.00 1019.4
20260506081540 -54 317 0.0 0.0 0.00 0.00 0.00 1019.3
20260506073027 -44 35 0.0 0.0 0.00 0.00 0.00 1019.3
20260506071524 -44 360 0.0 0.0 0.00 0.00 0.00 1019.3
20260506061603 -44 291 0.0 0.0 0.00 0.00 0.00 1019.2
20260506044528 -45 21 0.0 0.0 0.00 0.00 0.00 1019.2
20260506043012 -45 21 0.0 0.0 0.00 0.00 0.00 1019.2
20260506041508 -46 21 0.0 0.0 0.00 0.00 0.00 1019.2
20260506040004 -48 21 0.0 0.0 0.00 0.00 0.00 1019.1
20260506034608 -51 21 0.0 0.0 0.00 0.00 0.00 1019.0
20260506033057 -17 0.0 0.0 0.00 0.00 0.00 1018.9
20260506031551 -17 0.0 0.0 0.00 0.00 0.00 1018.7
20260506030046 -17 0.0 0.0 0.00 0.00 0.00 1018.6
20260506024541 -17 0.0 0.0 0.00 0.00 0.00 1018.4
20260506023048 -17 0.0 0.0 0.00 0.00 0.00 1018.4
20260506021520 -17 0.0 0.0 0.00 0.00 0.00 1018.3
20260506020029 -17 0.0 0.0 0.00 0.00 0.00 1018.3
20260506014510 -17 0.0 0.0 0.00 0.00 0.00 1018.3
20260506013006 -17 0.0 0.0 0.00 0.00 0.00 1018.3
20260506011502 -17 0.0 0.0 0.00 0.00 0.00 1018.2
20260506010058 -17 0.0 0.0 0.00 0.00 0.00 1018.2
20260506004554 -17 0.0 0.0 0.00 0.00 0.00 1018.2
20260506003049 -17 0.0 0.0 0.00 0.00 0.00 1018.1
20260506001527 -17 0.0 0.0 0.00 0.00 0.00 1018.1